Location: LDNL
(36.4545°S, 141.6685°E)
Time: 08:12:20
(UTC+11:00)

Vanguard 3 - Pass Details

Date: 30 November 2023
Orbit: 508 x 3239 km, 33.3° (Epoch: 21 February)

Event Time Altitude Azimuth Distance (km) Brightness Sun altitude
Rises 21:09:52 0° 260° (W) 7,195 13.4 -6.9°
Reaches altitude 10° 21:17:14 10° 275° (W) 6,156 12.4 -8.1°
Maximum altitude 21:27:54 18° 309° (NW) 5,150 11.4 -9.9°
Drops below altitude 10° 21:37:13 10° 345° (NNW) 5,206 11.0 -11.4°
Sets 21:42:42 0° 3° (N) 5,729 11.1 -12.2°
